Wind_Speed
16 16 15 15 14 14 14 13 13 12 12 11 11 11 10 10 9 9 9 9 9 9 9 8 8 8 8 7 7 7 6 6 5 5 5 4 4 3 3 3 2 2 2
19 18 18 17 16 15 15 15 14 14 13 13 12 12 12 11 11 11 10 10 10 10 10 9 9 9 9 8 8 7 7 6 6 6 5 5 4 4 3 3 3 3 3
21 21 20 19 19 18 17 16 16 16 16 15 14 14 13 13 12 12 12 12 11 11 11 10 10 10 9 9 9 8 8 8 7 6 6 5 5 4 4 4 4 4 4
23 23 22 22 21 20 19 18 17 17 17 17 17 16 15 14 14 13 13 13 13 12 12 11 11 11 10 10 9 9 9 9 8 7 7 6 6 5 5 4 5 5 5
24 24 24 24 23 22 21 20 20 19 19 19 19 18 17 16 16 15 15 14 14 14 13 12 12 12 11 11 10 10 9 9 9 8 8 7 7 7 6 6 6 6 5
25 25 25 25 24 24 23 22 22 21 21 21 21 20 20 19 17 17 16 16 16 15 15 14 13 13 12 12 11 11 11 10 10 10 9 9 8 8 7 7 7 7 6
26 26 26 26 26 26 25 24 24 23 23 23 23 22 21 21 20 19 18 18 17 17 16 15 15 14 14 14 13 12 12 12 11 11 10 10 10 9 9 8 8 8 8
27 27 28 28 27 27 27 27 27 26 25 25 24 24 23 23 22 21 20 20 19 18 18 17 16 16 15 15 15 14 13 13 13 12 12 12 11 11 10 10 9 9 9
28 28 29 29 29 29 29 29 29 29 28 27 26 26 26 25 24 23 23 22 21 20 20 19 18 17 17 17 16 16 15 15 14 13 13 13 13 12 12 11 11 11 10
29 29 30 30 30 30 31 30 30 30 29 29 29 28 27 27 26 26 25 24 23 22 22 21 20 19 19 18 18 17 16 16 16 15 14 14 14 14 13 13 12 12 12
29 29 30 31 31 30 30 31 30 30 30 29 30 30 30 30 29 28 27 26 25 24 24 23 22 22 21 20 20 19 18 17 17 17 16 16 15 15 15 15 14 14 14
30 30 30 31 31 31 30 31 30 31 30 31 31 32 32 31 31 30 29 29 27 26 26 25 24 24 23 22 22 21 20 19 19 19 18 18 17 17 16 16 16 16 16
30 31 31 31 31 31 31 32 31 31 30 31 31 32 33 32 32 31 31 30 29 28 28 27 27 26 25 24 24 23 22 21 21 21 21 20 19 19 18 18 18 18 18
30 31 31 31 32 32 32 32 32 31 30 30 31 32 33 33 32 32 33 32 31 30 30 29 29 28 27 27 26 26 25 24 23 23 22 22 22 21 21 21 21 20 20
30 31 32 32 32 33 34 33 33 32 32 31 32 32 33 34 33 33 34 33 33 32 31 31 31 30 30 29 29 28 27 27 26 26 25 25 24 24 23 23 23 23 23
31 31 32 32 32 33 34 34 34 33 33 32 32 33 34 34 34 35 35 35 34 34 33 33 32 32 32 32 31 31 30 30 29 29 28 28 27 27 26 26 26 26 25
30 31 32 32 32 33 33 34 35 34 35 34 35 35 35 35 35 35 36 36 36 35 34 34 34 34 34 33 33 33 33 32 32 31 30 30 29 29 29 28 28 28 28
29 30 30 32 33 34 34 34 34 35 35 35 36 36 36 37 36 35 36 37 37 37 36 35 34 35 36 35 35 35 35 35 35 34 33 33 32 31 31 31 31 30 30
29 29 29 31 32 33 33 33 34 35 35 35 36 36 37 38 39 37 36 37 38 39 38 38 37 37 37 37 38 37 37 37 37 37 36 35 34 34 33 33 33 32 32
28 28 29 31 31 31 32 33 33 34 35 36 36 36 37 38 40 40 39 37 38 39 40 40 39 38 38 39 39 39 38 38 39 39 39 38 37 36 36 35 35 35 35
27 28 29 30 30 30 31 32 32 33 34 34 35 36 37 38 39 40 41 40 39 40 41 41 41 40 39 40 40 40 40 40 39 39 40 40 39 38 37 37 37 37 36
27 27 28 29 30 31 31 32 33 33 33 33 35 36 37 38 38 39 40 41 41 42 42 42 41 41 40 39 40 41 41 40 40 40 40 40 40 40 40 40 39 39 38
25 26 27 29 30 30 31 32 33 33 34 34 35 36 37 38 39 39 40 41 42 41 42 42 42 41 42 42 40 41 41 41 40 40 41 41 42 42 42 41 41 41 41
25 26 28 28 29 29 29 30 31 33 35 35 35 36 36 38 39 40 40 41 41 41 41 41 42 42 42 42 43 42 42 42 41 40 42 43 43 43 43 43 43 43 43
25 26 28 29 29 29 30 31 32 32 34 35 35 36 37 37 38 39 40 41 41 41 41 41 42 41 41 42 42 42 42 43 43 43 43 44 44 44 45 45 45 45 44
24 26 27 28 29 29 31 31 32 32 33 33 34 34 36 37 37 38 38 40 40 41 41 41 42 43 41 41 41 42 43 42 43 44 43 43 44 44 44 45 46 46 45
Wind_Direction
248 246 243 241 241 239 238 235 234 233 232 230 228 227 225 221 220 215 212 207 204 201 200 200 199 200 200 202 203 206 208 208 208 210 210 209 204 202 205 208 207 207 207
250 248 244 241 240 239 238 237 237 235 234 233 232 230 229 226 222 218 217 214 212 209 208 207 206 204 205 208 209 211 213 210 208 211 211 211 208 206 209 214 217 221 223
251 248 245 242 240 239 240 238 237 236 236 235 234 233 231 228 226 222 219 217 215 214 213 212 211 209 208 211 213 214 216 213 212 212 212 212 212 215 219 222 225 227 229
250 247 245 242 242 241 241 240 240 239 238 237 235 234 233 231 229 227 223 221 218 217 217 216 215 215 214 214 214 215 217 216 216 217 215 215 220 225 231 233 233 234 237
248 246 245 243 242 243 243 241 241 240 239 238 237 235 234 233 233 230 225 224 222 221 220 219 217 218 218 218 218 218 220 219 221 224 224 225 228 232 237 239 238 238 240
248 246 244 244 243 242 243 243 242 242 240 238 238 237 235 234 233 232 228 226 225 225 225 225 222 221 222 222 222 222 223 223 226 229 231 233 235 237 240 241 242 242 244
248 246 245 244 245 243 242 243 243 242 241 239 238 238 236 235 234 234 231 228 227 227 228 229 228 226 225 224 224 225 227 228 229 231 234 236 238 240 242 243 243 244 246
250 247 245 245 244 243 242 242 242 242 242 240 239 238 237 235 234 234 233 231 229 229 230 230 229 228 228 228 229 230 231 231 233 237 238 239 240 243 245 247 246 246 247
252 249 246 246 245 244 242 241 241 241 241 241 239 237 237 236 235 234 235 233 232 232 232 232 230 230 230 231 232 233 234 234 236 239 241 243 244 246 248 248 248 249 250
253 251 248 246 244 243 242 241 240 239 240 240 239 237 238 237 236 235 235 234 234 234 233 233 232 232 232 233 234 234 236 238 238 240 243 245 247 248 249 250 250 251 252
255 252 249 245 243 243 242 240 239 238 239 239 239 238 238 238 237 236 236 235 234 234 234 233 233 233 233 234 235 236 238 240 241 242 244 246 248 249 249 250 252 253 255
255 252 249 247 244 243 242 241 239 238 238 238 238 238 238 238 237 237 236 236 235 235 234 233 233 234 235 236 237 238 240 242 243 244 245 247 250 251 250 250 252 254 256
254 251 248 247 245 243 243 242 242 241 238 239 238 238 239 238 238 237 236 236 236 235 235 235 235 236 237 238 239 240 241 242 244 247 248 249 251 253 253 251 252 254 257
253 249 247 247 247 244 243 242 242 242 240 240 238 237 239 237 237 237 236 236 236 236 236 236 237 237 238 239 240 242 243 244 245 247 250 251 251 253 254 253 253 254 257
251 249 247 247 247 246 245 244 245 244 242 242 240 237 238 237 237 237 236 236 236 237 237 238 239 239 240 242 243 244 245 246 248 249 251 252 253 254 255 256 254 255 257
250 249 247 247 248 246 245 245 246 246 244 244 241 237 237 237 237 236 236 236 237 238 239 240 240 240 241 243 244 246 247 248 249 250 251 252 253 254 256 257 257 257 258
252 251 249 247 248 247 246 246 246 246 246 246 245 242 239 238 237 237 236 236 237 238 239 241 241 242 243 244 245 246 247 248 249 250 251 251 253 255 256 256 257 258 259
253 252 250 248 247 247 247 247 246 246 247 247 246 244 244 242 239 238 237 237 237 239 240 241 243 244 245 247 247 248 248 249 249 250 251 252 253 255 256 256 256 257 259
253 252 249 246 246 247 248 249 247 246 247 248 248 246 245 244 243 242 239 238 239 240 241 242 243 245 247 248 249 249 249 250 250 250 250 251 252 254 255 254 255 257 259
255 253 249 247 246 247 249 250 250 249 249 250 249 248 247 246 244 243 241 241 241 241 242 244 245 246 248 249 249 249 250 251 251 251 250 250 252 253 254 254 255 258 259
258 254 250 247 247 249 250 250 250 250 250 249 249 249 249 247 245 245 245 244 243 243 243 244 245 247 249 249 249 249 250 251 252 252 251 250 251 253 253 253 256 258 259
259 255 253 249 249 249 251 250 251 251 249 250 251 250 249 248 245 245 245 246 247 246 246 246 247 248 249 250 250 250 251 251 251 252 252 250 251 252 253 254 256 257 260
260 257 256 256 251 251 251 251 251 251 250 250 251 251 250 248 246 246 247 247 249 249 249 248 249 249 250 251 251 251 251 251 251 252 252 251 252 252 253 255 256 257 259
262 258 257 258 253 252 252 252 252 253 252 252 252 252 251 249 247 247 248 247 248 249 250 251 250 250 251 252 253 254 253 252 252 251 252 252 252 253 253 253 256 257 260
262 261 260 260 255 255 255 253 253 255 256 255 253 253 252 251 249 248 248 247 247 249 250 251 251 251 251 252 253 253 253 253 252 253 254 254 254 255 255 256 258 258 260
266 264 263 260 257 258 258 256 255 256 256 255 256 255 254 252 250 251 250 250 249 249 251 252 252 250 250 251 252 253 252 253 253 253 254 254 255 255 257 258 259 259 259
Height
5844 5845 5846 5846 5847 5847 5848 5849 5850 5851 5851 5852 5853 5853 5853 5853 5854 5854 5854 5855 5855 5856 5856 5857 5857 5858 5859 5859 5860 5860 5861 5861 5862 5862 5863 5863 5863 5864 5864 5864 5864 5864 5864
5840 5841 5842 5843 5844 5844 5845 5846 5847 5848 5849 5850 5850 5851 5851 5851 5852 5852 5853 5853 5854 5854 5855 5855 5856 5857 5857 5858 5859 5859 5860 5860 5861 5861 5862 5862 5862 5863 5863 5863 5864 5864 5864
5836 5837 5837 5839 5840 5841 5842 5843 5844 5845 5846 5847 5848 5848 5849 5849 5850 5850 5851 5851 5852 5853 5853 5854 5854 5855 5856 5857 5857 5858 5859 5859 5860 5860 5861 5861 5862 5862 5862 5862 5863 5863 5863
5831 5832 5833 5834 5836 5837 5838 5839 5841 5842 5843 5844 5844 5845 5846 5847 5847 5848 5849 5849 5850 5851 5851 5852 5853 5854 5854 5855 5856 5857 5857 5858 5859 5859 5859 5860 5860 5861 5861 5861 5862 5862 5862
5826 5827 5828 5829 5831 5832 5834 5835 5837 5838 5839 5840 5841 5842 5843 5844 5845 5846 5846 5847 5848 5848 5849 5850 5851 5852 5852 5853 5854 5855 5856 5856 5857 5858 5858 5859 5859 5860 5860 5860 5860 5861 5861
5820 5822 5823 5824 5826 5827 5829 5830 5832 5833 5835 5836 5837 5838 5839 5841 5842 5842 5843 5844 5845 5846 5847 5848 5848 5849 5850 5851 5852 5853 5854 5854 5855 5856 5856 5857 5857 5858 5858 5859 5859 5859 5859
5815 5816 5818 5819 5821 5822 5824 5825 5827 5828 5830 5831 5833 5834 5835 5837 5838 5839 5840 5841 5842 5843 5844 5845 5846 5847 5848 5849 5850 5851 5852 5852 5853 5854 5855 5855 5856 5856 5857 5857 5857 5858 5858
5809 5810 5812 5813 5815 5816 5818 5819 5821 5823 5824 5826 5828 5829 5831 5832 5834 5835 5836 5837 5839 5840 5841 5842 5843 5844 5845 5846 5847 5848 5849 5850 5851 5851 5852 5853 5854 5854 5854 5855 5855 5856 5856
5803 5804 5805 5806 5808 5809 5810 5812 5814 5816 5818 5820 5822 5824 5826 5827 5829 5831 5832 5833 5835 5836 5837 5838 5840 5841 5842 5843 5844 5845 5846 5847 5848 5849 5850 5850 5851 5852 5852 5853 5853 5854 5854
5796 5797 5798 5799 5801 5802 5803 5805 5807 5809 5811 5814 5816 5818 5820 5822 5824 5825 5827 5829 5830 5832 5833 5834 5836 5837 5838 5839 5840 5842 5843 5844 5845 5846 5847 5847 5848 5849 5849 5850 5851 5851 5851
5789 5789 5790 5792 5793 5795 5796 5798 5800 5802 5804 5807 5809 5811 5813 5816 5818 5820 5822 5824 5825 5827 5829 5830 5832 5833 5834 5835 5837 5838 5839 5840 5841 5842 5843 5844 5845 5846 5846 5847 5848 5848 5848
5781 5782 5783 5785 5786 5788 5789 5791 5793 5795 5797 5800 5802 5804 5807 5809 5811 5813 5816 5818 5820 5822 5824 5825 5827 5828 5830 5831 5832 5834 5835 5836 5837 5838 5839 5840 5841 5842 5843 5843 5844 5845 5845
5774 5775 5776 5778 5779 5781 5783 5784 5786 5789 5791 5793 5795 5797 5800 5802 5804 5807 5809 5811 5814 5816 5818 5820 5822 5824 5825 5826 5828 5829 5831 5832 5833 5834 5835 5836 5837 5838 5839 5839 5840 5841 5841
5766 5767 5769 5771 5772 5774 5776 5778 5780 5782 5784 5785 5787 5790 5793 5795 5798 5800 5803 5805 5807 5810 5812 5814 5816 5818 5820 5821 5823 5824 5826 5827 5828 5829 5830 5831 5832 5833 5834 5835 5836 5836 5837
5759 5760 5762 5764 5766 5767 5769 5771 5773 5775 5777 5779 5781 5783 5785 5788 5791 5793 5796 5798 5801 5803 5806 5808 5810 5812 5814 5816 5817 5819 5820 5822 5823 5824 5825 5826 5827 5828 5829 5830 5831 5831 5832
5751 5752 5754 5756 5758 5760 5762 5764 5766 5768 5770 5772 5774 5776 5778 5781 5783 5786 5788 5791 5794 5796 5799 5801 5803 5806 5808 5810 5811 5813 5814 5815 5817 5818 5819 5820 5821 5822 5823 5824 5825 5826 5826
5743 5744 5746 5748 5750 5752 5754 5756 5759 5761 5763 5765 5766 5768 5770 5773 5775 5778 5780 5783 5786 5789 5791 5794 5796 5798 5801 5802 5804 5806 5807 5808 5810 5811 5813 5814 5815 5816 5817 5818 5819 5819 5820
5736 5737 5739 5740 5743 5745 5747 5749 5751 5753 5755 5757 5758 5760 5762 5764 5767 5770 5772 5775 5778 5781 5783 5786 5789 5791 5792 5794 5796 5798 5799 5801 5802 5804 5805 5806 5808 5809 5810 5811 5812 5813 5814
5728 5729 5731 5733 5735 5737 5739 5741 5743 5745 5747 5748 5750 5752 5754 5756 5758 5761 5764 5766 5769 5772 5775 5777 5780 5782 5784 5786 5787 5789 5790 5792 5793 5795 5796 5798 5800 5801 5802 5803 5804 5805 5807
5720 5721 5723 5725 5727 5730 5731 5733 5735 5737 5738 5740 5742 5744 5745 5747 5750 5752 5755 5758 5760 5763 5766 5768 5771 5773 5775 5777 5778 5780 5781 5783 5784 5785 5787 5789 5790 5792 5793 5795 5796 5797 5799
5713 5714 5716 5718 5720 5722 5724 5726 5728 5729 5730 5732 5734 5735 5736 5738 5741 5743 5746 5749 5751 5754 5756 5758 5761 5763 5765 5766 5768 5770 5771 5773 5774 5775 5777 5779 5781 5783 5784 5786 5787 5789 5790
5706 5707 5709 5711 5713 5714 5716 5718 5720 5721 5722 5724 5725 5726 5728 5729 5732 5734 5737 5739 5741 5744 5746 5749 5751 5753 5755 5756 5758 5760 5762 5764 5764 5766 5768 5769 5771 5773 5775 5777 5778 5780 5781
5700 5702 5703 5704 5706 5707 5708 5710 5711 5713 5714 5715 5716 5718 5719 5720 5722 5725 5727 5729 5731 5734 5736 5739 5741 5743 5745 5746 5748 5750 5752 5753 5755 5757 5758 5760 5762 5764 5766 5767 5769 5770 5772
5694 5695 5696 5696 5698 5699 5700 5702 5703 5705 5706 5707 5708 5709 5710 5711 5713 5715 5718 5720 5722 5724 5726 5728 5731 5732 5734 5736 5738 5740 5742 5744 5745 5748 5749 5751 5752 5754 5756 5758 5759 5760 5761
5688 5689 5689 5689 5690 5692 5693 5694 5695 5696 5697 5698 5698 5699 5701 5702 5704 5706 5708 5710 5712 5714 5716 5719 5720 5722 5724 5726 5728 5730 5732 5733 5735 5737 5739 5741 5743 5744 5746 5748 5749 5750 5751
5682 5682 5682 5682 5683 5684 5685 5686 5687 5688 5688 5689 5690 5691 5692 5693 5695 5696 5698 5700 5702 5704 5707 5709 5710 5712 5714 5716 5718 5720 5722 5724 5725 5727 5729 5731 5733 5735 5736 5737 5739 5740 5741